Time,TemperatureF,DewpointF,PressureIn,WindDirection,WindDirectionDegrees,WindSpeedMPH,WindSpeedGustMPH,Humidity,HourlyPrecipIn,Conditions,Clouds,dailyrainin,SoftwareType,DateUTC
2013-07-01 00:01:00,54.0,52.0,30.00,North,0,0.0,-999.0,93,-99.99,,,-99.99,,2013-07-01 04:01:00,
2013-07-01 00:11:00,54.0,50.0,30.00,North,10,5.0,-999.0,87,-99.99,,,-99.99,,2013-07-01 04:11:00,
2013-07-01 00:22:00,54.0,50.0,30.00,NNE,20,5.0,-999.0,87,-99.99,,,-99.99,,2013-07-01 04:22:00,
2013-07-01 00:32:00,55.0,48.0,30.01,NNE,20,5.0,-999.0,76,-99.99,,,-99.99,,2013-07-01 04:32:00,
2013-07-01 00:42:00,57.0,48.0,30.01,North,10,3.0,-999.0,71,-99.99,,,-99.99,,2013-07-01 04:42:00,
2013-07-01 00:52:00,55.0,48.0,30.01,North,0,0.0,-999.0,76,-99.99,,,-99.99,,2013-07-01 04:52:00,
2013-07-01 01:01:00,54.0,48.0,30.01,North,10,3.0,-999.0,81,-99.99,,,-99.99,,2013-07-01 05:01:00,
2013-07-01 01:11:00,54.0,50.0,30.02,North,10,6.0,-999.0,87,-99.99,,,-99.99,,2013-07-01 05:11:00,
2013-07-01 01:22:00,55.0,48.0,30.01,North,10,5.0,-999.0,76,-99.99,,,-99.99,,2013-07-01 05:22:00,
2013-07-01 01:32:00,55.0,48.0,30.01,North,10,5.0,-999.0,76,-99.99,,,-99.99,,2013-07-01 05:32:00,
2013-07-01 01:42:00,55.0,48.0,30.02,North,10,6.0,-999.0,76,-99.99,,,-99.99,,2013-07-01 05:42:00,
2013-07-01 01:52:00,55.0,48.0,30.02,North,10,5.0,-999.0,76,-99.99,,,-99.99,,2013-07-01 05:52:00,
2013-07-01 02:02:00,54.0,48.0,30.02,North,10,5.0,-999.0,81,-99.99,,,-99.99,,2013-07-01 06:02:00,
2013-07-01 02:12:00,54.0,48.0,30.02,North,360,6.0,-999.0,81,-99.99,,,-99.99,,2013-07-01 06:12:00,
2013-07-01 02:23:00,54.0,48.0,30.02,North,360,5.0,-999.0,81,-99.99,,,-99.99,,2013-07-01 06:23:00,
2013-07-01 02:33:00,54.0,48.0,30.02,North,0,0.0,-999.0,81,-99.99,,,-99.99,,2013-07-01 06:33:00,
2013-07-01 02:43:00,52.0,48.0,30.02,North,0,0.0,-999.0,87,-99.99,,,-99.99,,2013-07-01 06:43:00,
2013-07-01 02:53:00,52.0,50.0,30.02,North,0,0.0,-999.0,93,-99.99,,,-99.99,,2013-07-01 06:53:00,
2013-07-01 03:01:00,52.0,48.0,30.02,North,0,0.0,-999.0,87,-99.99,,,-99.99,,2013-07-01 07:01:00,
2013-07-01 03:11:00,52.0,48.0,30.02,NNW,340,3.0,-999.0,87,0.01,,,-99.99,,2013-07-01 07:11:00,
2013-07-01 03:21:00,52.0,48.0,30.02,NNW,340,3.0,-999.0,87,0.01,,,-99.99,,2013-07-01 07:21:00,
2013-07-01 03:33:00,52.0,48.0,30.02,North,350,3.0,-999.0,87,0.01,,,-99.99,,2013-07-01 07:33:00,
2013-07-01 03:42:00,50.0,48.0,30.02,North,0,0.0,-999.0,93,0.01,,,-99.99,,2013-07-01 07:42:00,
2013-07-01 03:53:00,50.0,48.0,30.02,North,0,0.0,-999.0,93,0.01,,,-99.99,,2013-07-01 07:53:00,
2013-07-01 04:01:00,50.0,48.0,30.02,North,0,0.0,-999.0,93,-99.99,,,-99.99,,2013-07-01 08:01:00,
2013-07-01 04:11:00,50.0,48.0,30.02,North,0,0.0,-999.0,93,-99.99,,,-99.99,,2013-07-01 08:11:00,
2013-07-01 04:22:00,50.0,48.0,30.02,North,0,0.0,-999.0,93,-99.99,,,-99.99,,2013-07-01 08:22:00,
2013-07-01 04:32:00,50.0,48.0,30.02,North,0,0.0,-999.0,93,-99.99,,,-99.99,,2013-07-01 08:32:00,
2013-07-01 04:42:00,48.0,48.0,30.02,North,360,3.0,-999.0,100,-99.99,,,-99.99,,2013-07-01 08:42:00,
2013-07-01 04:52:00,48.0,48.0,30.02,North,360,5.0,-999.0,100,-99.99,,,-99.99,,2013-07-01 08:52:00,
2013-07-01 05:01:00,48.0,48.0,30.02,North,360,3.0,-999.0,100,-99.99,,,-99.99,,2013-07-01 09:01:00,
2013-07-01 05:11:00,48.0,48.0,30.03,North,350,3.0,-999.0,100,-99.99,,,-99.99,,2013-07-01 09:11:00,
2013-07-01 05:22:00,48.0,48.0,30.03,North,360,3.0,-999.0,100,-99.99,,,-99.99,,2013-07-01 09:22:00,
2013-07-01 05:33:00,50.0,48.0,30.03,North,0,0.0,-999.0,93,-99.99,,,-99.99,,2013-07-01 09:33:00,
2013-07-01 05:43:00,50.0,48.0,30.03,NNW,340,3.0,-999.0,93,-99.99,,,-99.99,,2013-07-01 09:43:00,
2013-07-01 05:53:00,50.0,48.0,30.04,NNW,330,3.0,-999.0,93,-99.99,,,-99.99,,2013-07-01 09:53:00,
2013-07-01 06:03:00,50.0,48.0,30.04,NNW,340,3.0,-999.0,93,-99.99,,,-99.99,,2013-07-01 10:03:00,
2013-07-01 06:11:00,50.0,48.0,30.04,North,0,0.0,-999.0,93,-99.99,,,-99.99,,2013-07-01 10:11:00,
2013-07-01 06:22:00,52.0,48.0,30.04,North,0,0.0,-999.0,87,-99.99,,,-99.99,,2013-07-01 10:22:00,
2013-07-01 06:33:00,52.0,48.0,30.04,North,0,0.0,-999.0,87,-99.99,,,-99.99,,2013-07-01 10:33:00,
2013-07-01 06:42:00,52.0,48.0,30.04,North,0,0.0,-999.0,87,-99.99,,,-99.99,,2013-07-01 10:42:00,
2013-07-01 06:52:00,52.0,48.0,30.05,North,0,0.0,-999.0,87,-99.99,,,-99.99,,2013-07-01 10:52:00,
2013-07-01 07:02:00,50.0,48.0,30.05,North,0,0.0,-999.0,93,-99.99,,,-99.99,,2013-07-01 11:02:00,
2013-07-01 07:33:00,54.0,52.0,30.05,North,0,0.0,-999.0,93,-99.99,,,-99.99,,2013-07-01 11:33:00,
2013-07-01 07:43:00,55.0,52.0,30.05,North,0,0.0,-999.0,87,-99.99,,,-99.99,,2013-07-01 11:43:00,
2013-07-01 07:52:00,57.0,52.0,30.05,North,10,3.0,-999.0,82,-99.99,,,-99.99,,2013-07-01 11:52:00,
2013-07-01 08:01:00,57.0,52.0,30.05,North,0,0.0,-999.0,82,-99.99,,,-99.99,,2013-07-01 12:01:00,
2013-07-01 08:11:00,59.0,52.0,30.05,North,0,0.0,-999.0,76,-99.99,,,-99.99,,2013-07-01 12:11:00,
2013-07-01 08:21:00,61.0,52.0,30.06,North,0,0.0,-999.0,72,-99.99,,,-99.99,,2013-07-01 12:21:00,
2013-07-01 08:33:00,61.0,52.0,30.06,North,0,0.0,-999.0,72,-99.99,,,-99.99,,2013-07-01 12:33:00,
2013-07-01 08:43:00,63.0,52.0,30.06,NNE,30,5.0,-999.0,67,-99.99,,,-99.99,,2013-07-01 12:43:00,
2013-07-01 08:53:00,63.0,52.0,30.06,NNE,30,3.0,-999.0,67,-99.99,,,-99.99,,2013-07-01 12:53:00,
2013-07-01 09:01:00,63.0,52.0,30.06,NNE,30,3.0,-999.0,67,0.01,,,-99.99,,2013-07-01 13:01:00,
2013-07-01 10:01:00,70.0,54.0,30.08,ENE,60,9.0,-999.0,56,-99.99,,,-99.99,,2013-07-01 14:01:00,
2013-07-01 18:42:00,70.0,46.0,30.11,ENE,70,10.0,17.0,43,-99.99,,,-99.99,,2013-07-01 22:42:00,
2013-07-01 19:01:00,70.0,46.0,30.11,East,80,8.0,-999.0,43,-99.99,,,-99.99,,2013-07-01 23:01:00,
2013-07-01 19:33:00,68.0,46.0,30.12,ENE,70,9.0,-999.0,45,-99.99,,,-99.99,,2013-07-01 23:33:00,
2013-07-01 19:43:00,68.0,48.0,30.12,ENE,70,7.0,-999.0,49,-99.99,,,-99.99,,2013-07-01 23:43:00,
2013-07-01 20:01:00,66.0,48.0,30.12,East,80,7.0,-999.0,52,-99.99,,,-99.99,,2013-07-02 00:01:00,
2013-07-01 20:43:00,64.0,43.0,30.13,ENE,60,8.0,-999.0,45,-99.99,,,-99.99,,2013-07-02 00:43:00,
2013-07-01 20:53:00,64.0,43.0,30.13,ENE,60,8.0,-999.0,45,-99.99,,,-99.99,,2013-07-02 00:53:00,
2013-07-01 21:01:00,64.0,43.0,30.13,ENE,60,8.0,-999.0,45,-99.99,,,-99.99,,2013-07-02 01:01:00,